Terminal Aerodrome Forecast
Issued by NWS Raleigh/Durham, NC

Home | Current Version | Previous Version | Text Only | Print | Product List | Glossary On
Versions: 1 2 3 4 5 6 7 8 9 10 11 12 13 14 15 16 17 18 19 20 21 22 23 24 25 26 27 28 29 30 31 32 33 34 35 36 37 38 39 40 41 42 43 44 45 46 47 48 49 50
000
FTUS42 KRAH 020532
TAFRDU
TAF
KRDU 020532Z 0206/0306 00000KT 6SM BCFG BR FEW003 SCT080
     FM020900 00000KT 2SM BR SCT003
      TEMPO 0209/0213 1/2SM FG VV002
     FM021300 VRB02KT 4SM BR BKN012
     FM021400 VRB03KT P6SM FEW015 BKN025 BKN070
     FM021600 VRB05KT P6SM BKN035=

USA.gov is the U.S. government's official web portal to all federal, state and local government web resources and services.